Terminal Aerodrome Forecast
Issued by NWS Upton, NY

Current Version | Previous Version | Text Only | Print | Product List | Glossary On
Versions: 1 2 3 4 5 6 7 8 9 10 11 12 13 14 15 16 17 18 19 20 21 22 23 24 25 26 27
000
FTUS41 KOKX 010800 AAA
TAFISP
TAF AMD
KISP 010809Z 0108/0206 03008KT P6SM -RA VCSH OVC012
     FM011400 03012KT P6SM -RA BKN015 OVC025
     FM011700 03012G18KT P6SM BKN015 OVC050
     FM020200 02010KT P6SM OVC010=

USA.gov is the U.S. government's official web portal to all federal, state and local government web resources and services.